"Pseudo-MPEC" for ZTF02rt

Created 2019 Feb 20 14:18:10 UT using Find_Orb

Click here for an explanation of pseudo-MPECs

 
 Astrometry: 
     ZTF02rt  C2019 02 09.35053109 49 15.50 +24 56 35.9    ~29LI 17.11RUNEOCPI41
     ZTF02rt  C2019 02 09.35087809 49 19.41 +24 55 52.6    ~29LI 17.11RUNEOCPI41
     ZTF02rt  C2019 02 09.35649009 50 24.81 +24 43 51.4    ~29LI 18.47RUNEOCPI41
     ZTF02rt  C2019 02 09.35683709 50 28.87 +24 43 05.9    ~29LI 18.47RUNEOCPI41

Station data:
(I41) Palomar Mountain--ZTF  (N33.357340 W116.859780)  US/California. 1.2-m
   f/2.44 Oschin Schmidt + CCD.

Orbital elements:  ZTF02rt
   Perigee 2019 Feb 8.701329 +/- 36.6 TT = 16:49:54 (JD 2458523.201329)
Epoch 2019 Feb  9.0 TT = JDT 2458523.5                        AutoNEOCP
M   2.70478029 +/- 27               (J2000 equator)
n   9.05605989 +/- 0.421            Peri.   51.80173 +/- 53
a492013.835 +/- 5.79e+7             Node     2.59914 +/- 70
e   0.8439679 +/- 0.242             Incl.   39.37461 +/- 2.6
P  39.75d                  H 33.0   G  0.15   U 12.2  SR
q 76769.9268 +/- 1.95e+7    Q 907257.744 +/- 6.48e+9
From 4 observations 2019 Feb. 9 (9.1 min); mean residual 0".70
Residuals in arcseconds: 
190209 I41  1.1+  .66-    190209 I41  .31-  .48+    
190209 I41  1.1-  .67+    190209 I41  .35+  .49-    

Ephemerides (geocentric):
Date (UTC) HH   RA              Dec         delta   r     elong  mag " sig PA
---- -- -- --  -------------   -----------  ------ ------ -----  --- ---- ---
2019 02 20 14  14 18 23.985   -23 27 17.56  814840 0.9907 111.0 24.0  64d  16
2019 02 20 15  14 18 40.142   -23 29 38.37  815945 0.9907 111.0 24.0  64d  16
2019 02 20 16  14 18 56.264   -23 31 58.70  817043 0.9907 110.9 24.0  64d  16
2019 02 20 17  14 19 12.349   -23 34 18.55  818134 0.9907 110.9 24.0  64d  16
2019 02 20 18  14 19 28.400   -23 36 37.93  819218 0.9907 110.9 24.0  64d  16
2019 02 20 19  14 19 44.416   -23 38 56.84  820295 0.9907 110.8 24.1  64d  16
2019 02 20 20  14 20 00.397   -23 41 15.29  821365 0.9907 110.8 24.1  64d  16
2019 02 20 21  14 20 16.344   -23 43 33.28  822428 0.9907 110.8 24.1  64d  16
2019 02 20 22  14 20 32.258   -23 45 50.81  823484 0.9907 110.7 24.1  64d  16
2019 02 20 23  14 20 48.138   -23 48 07.89  824532 0.9908 110.7 24.1  64d  16
2019 02 21 00  14 21 03.984   -23 50 24.52  825574 0.9908 110.7 24.1  64d  16
2019 02 21 01  14 21 19.798   -23 52 40.71  826609 0.9908 110.7 24.1  64d  16
2019 02 21 02  14 21 35.580   -23 54 56.47  827637 0.9908 110.6 24.1  64d  16
2019 02 21 03  14 21 51.329   -23 57 11.78  828657 0.9908 110.6 24.1  63d  16
2019 02 21 04  14 22 07.046   -23 59 26.67  829671 0.9908 110.6 24.1  63d  16
2019 02 21 05  14 22 22.731   -24 01 41.13  830678 0.9908 110.5 24.1  63d  16
2019 02 21 06  14 22 38.385   -24 03 55.16  831678 0.9908 110.5 24.1  63d  16
2019 02 21 07  14 22 54.008   -24 06 08.78  832671 0.9908 110.5 24.1  63d  16
2019 02 21 08  14 23 09.600   -24 08 21.98  833656 0.9908 110.5 24.1  63d  16
2019 02 21 09  14 23 25.161   -24 10 34.76  834635 0.9908 110.4 24.1  63d  16
2019 02 21 10  14 23 40.692   -24 12 47.14  835608 0.9909 110.4 24.1  63d  16
2019 02 21 11  14 23 56.194   -24 14 59.11  836573 0.9909 110.4 24.1  66d  16
2019 02 21 12  14 24 11.665   -24 17 10.68  837531 0.9909 110.3 24.1  64d  16
2019 02 21 13  14 24 27.107   -24 19 21.85  838482 0.9909 110.3 24.1  64d  16
2019 02 21 14  14 24 42.520   -24 21 32.63  839427 0.9909 110.3 24.1  64d  16
2019 02 21 15  14 24 57.904   -24 23 43.02  840364 0.9909 110.3 24.1  64d  16
2019 02 21 16  14 25 13.259   -24 25 53.02  841295 0.9909 110.2 24.1  64d  16
2019 02 21 17  14 25 28.586   -24 28 02.63  842218 0.9909 110.2 24.1  64d  16
2019 02 21 18  14 25 43.885   -24 30 11.86  843135 0.9909 110.2 24.1  64d  16
2019 02 21 19  14 25 59.156   -24 32 20.71  844045 0.9909 110.2 24.1  64d  16
2019 02 21 20  14 26 14.399   -24 34 29.19  844948 0.9909 110.1 24.1  64d  16
2019 02 21 21  14 26 29.615   -24 36 37.30  845845 0.9910 110.1 24.1  64d  16
2019 02 21 22  14 26 44.804   -24 38 45.04  846734 0.9910 110.1 24.1  64d  16
2019 02 21 23  14 26 59.966   -24 40 52.42  847617 0.9910 110.1 24.1  64d  16
2019 02 22 00  14 27 15.102   -24 42 59.43  848493 0.9910 110.0 24.2  63d  16
2019 02 22 01  14 27 30.211   -24 45 06.08  849362 0.9910 110.0 24.2  63d  16
2019 02 22 02  14 27 45.293   -24 47 12.38  850224 0.9910 110.0 24.2  63d  16
2019 02 22 03  14 28 00.350   -24 49 18.32  851079 0.9910 110.0 24.2  63d  16
2019 02 22 04  14 28 15.382   -24 51 23.91  851928 0.9910 109.9 24.2  63d  16
2019 02 22 05  14 28 30.387   -24 53 29.16  852769 0.9910 109.9 24.2  63d  16
2019 02 22 06  14 28 45.368   -24 55 34.06  853604 0.9910 109.9 24.2  63d  16
2019 02 22 07  14 29 00.324   -24 57 38.62  854433 0.9910 109.9 24.2  63d  16
2019 02 22 08  14 29 15.254   -24 59 42.84  855254 0.9911 109.8 24.2  63d  16
2019 02 22 09  14 29 30.161   -25 01 46.73  856069 0.9911 109.8 24.2  63d  16
2019 02 22 10  14 29 45.043   -25 03 50.28  856876 0.9911 109.8 24.2  63d  16
2019 02 22 11  14 29 59.901   -25 05 53.50  857677 0.9911 109.8 24.2  63d  16
2019 02 22 12  14 30 14.735   -25 07 56.39  858472 0.9911 109.7 24.2  63d  16
2019 02 22 13  14 30 29.545   -25 09 58.96  859259 0.9911 109.7 24.2  63d  16